Simultaneous Nadir Overpasses (SNOs) Predictions

Prediction of SNOs between GOES-17 and NOAA-20 Satellite Orbit:

Table of predicted SNOs for the next 14.0 days since TLE Epoch: 6/15/2022
Index Date Time (GOES-17) GOES-17 Lat,Lon NOAA-20 Lat,Lon Distance(km) Time Diff (sec)
1 06/16/2022 22:37:09 -0.01,-137.19 -0.12,-137.61 48.65 80
2 06/17/2022 22:15:45 -0.01,-137.18 0.93,-133.09 467.44 80
3 06/19/2022 10:40:11 0.01,-137.18 0.28,-138.35 132.82 80
4 06/20/2022 10:18:46 0.01,-137.18 -0.71,-133.81 383.17 80
5 06/21/2022 22:43:22 -0.02,-137.17 -0.44,-139.12 222.47 80
6 06/22/2022 22:21:56 -0.01,-137.16 0.56,-134.59 293.40 80
7 06/24/2022 10:46:23 0.01,-137.16 0.64,-139.85 307.47 80
8 06/25/2022 10:24:58 0.01,-137.15 -0.41,-135.33 207.87 80
9 06/26/2022 22:49:34 -0.00,-137.12 -0.79,-140.63 399.18 80
10 06/27/2022 22:30:48 0.00,-137.11 0.21,-136.09 115.79 80
11 06/29/2022 10:52:35 -0.01,-137.09 0.93,-141.36 486.44 80
